Location: Hard
(49.9417°N, 12.0858°E)
Time: 22:09:10
(UTC+00:00)

STARLINK-1375 - Pass Details

Date: 07 June 2020
Orbit: 548 x 551 km, 53.0° (Epoch: 08 July)

Event Time Altitude Azimuth Distance (km) Brightness Sun altitude
Rises 00:39:00 0° 282° (WNW) 2,715 7.1 -14.7°
Reaches altitude 10° 00:41:16 10° 287° (WNW) 1,821 6.2 -14.5°
Maximum altitude 00:45:20 57° 6° (N) 649 4.3 -14.3°
Drops below altitude 10° 00:49:25 10° 86° (E) 1,818 6.6 -14.0°
Sets 00:51:41 0° 91° (E) 2,710 7.5 -13.9°
